Regional Weather Roundup
Issued by NWS Boston, MA

Current Version | Previous Version | Text Only | Print | Product List | Glossary On
Versions: 1 2 3 4 5 6 7 8 9 10 11 12 13 14 15 16 17 18 19 20 21 22 23 24 25 26 27 28 29 30 31 32 33 34 35 36 37 38 39 40 41 42 43 44 45 46 47 48 49 50
179 ASUS41 KBOX 231304 RWRBOX REGIONAL WEATHER ROUNDUP NATIONAL WEATHER SERVICE BOSTON/NORTON MA 900 AM EDT FRI APR 23 2021 NOTE: "FAIR" INDICATES FEW OR NO CLOUDS BELOW 12,000 FEET WITH NO SIGNIFICANT WEATHER AND/OR OBSTRUCTIONS TO VISIBILITY. MAZALL-231400- EASTERN MASSACHUSETTS CITY SKY/WX TMP DP RH WIND PRES REMARKS BOSTON MOSUNNY 46 24 42 W23 29.81F BEVERLY SUNNY 44 23 43 W16G30 29.78F LAWRENCE SUNNY 44 25 47 SW21G29 29.80F BEDFORD SUNNY 46 24 42 W21G29 29.81F BLUE HILL N/A 41 23 48 W24G30 29.80F WCI 31 NORWOOD SUNNY 46 24 42 W20 29.85S MARSHFIELD SUNNY 46 25 42 W16G24 29.82F PLYMOUTH SUNNY 44 23 43 W16G23 29.84F TAUNTON SUNNY 44 23 43 W12G29 29.87F NEW BEDFORD SUNNY 44 24 45 W16G26 29.88S $$ MAZALL-231400- CAPE COD AND THE ISLANDS CITY SKY/WX TMP DP RH WIND PRES REMARKS FALMOUTH SUNNY 43 25 49 W20G28 29.86F HYANNIS SUNNY 46 24 42 W15G30 29.83F CHATHAM SUNNY 46 23 40 W8 29.85S PROVINCETOWN SUNNY 43 27 53 W24G32 29.83F NANTUCKET SUNNY 45 27 49 W23G32 29.88S MARTHAS VNYRD SUNNY 44 26 49 W16G30 29.89S $$ MAZALL-231400- CENTRAL AND WESTERN MASSACHUSETTS CITY SKY/WX TMP DP RH WIND PRES REMARKS WORCESTER SUNNY 39 22 50 W20G30 29.82S WCI 29 FITCHBURG SUNNY 45 24 43 W13 29.83S ORANGE SUNNY 42 24 49 W18 29.85F SPRINGFIELD MOSUNNY 44 22 42 W18 29.88F WESTFIELD NOT AVBL NORTH ADAMS NOT AVBL PITTSFIELD PTSUNNY 38 23 55 W18G26 29.87F WCI 28 $$ RIZALL-231400- RHODE ISLAND CITY SKY/WX TMP DP RH WIND PRES REMARKS PROVIDENCE MOSUNNY 44 23 43 W20G25 29.89F NEWPORT SUNNY 43 24 47 W14G23 29.90S BLOCK ISLAND SUNNY 42 26 53 W22 29.95S SMITHFIELD SUNNY 42 24 49 W13G23 29.87S WESTERLY SUNNY 41 21 44 W12G21 29.94S $$ CTZALL-231400- CONNECTICUT CITY SKY/WX TMP DP RH WIND PRES REMARKS BRADLEY INTL MOSUNNY 45 22 40 W13G21 29.92F HARTFORD SUNNY 44 22 41 SW9G18 29.94F BRIDGEPORT SUNNY 44 22 41 W17G24 29.99F DANBURY SUNNY 44 22 41 W9 29.99S GROTON SUNNY 44 23 43 W15G24 29.94F NEW HAVEN SUNNY 45 25 45 W12 29.98S CHESTER FAIR 43 21 42 W8G16 29.94S MERIDEN SUNNY 44 21 40 W10G20 29.96S WILLIMANTIC SUNNY 42 23 46 W13 29.92F OXFORD SUNNY 40 22 48 W10G17 29.95F $$ MEZ002-015-021-024-NHZ003-005-008-011-012-014-VTZ005-008-231400- NORTHERN NEW ENGLAND CITY SKY/WX TMP DP RH WIND PRES REMARKS PORTLAND ME MOSUNNY 44 23 43 W21G31 29.67S BANGOR ME MOSUNNY 42 21 43 W18G26 29.51F CONCORD NH SUNNY 43 21 41 W20G29 29.76S MANCHESTER NH MOSUNNY 43 22 43 W14G28 29.77S NASHUA NH SUNNY 44 24 45 W13G23 29.80F PORTSMOUTH NH MOSUNNY 44 20 38 W18G31 29.74F JAFFREY NH SUNNY 39 23 52 W13G21 29.79F WCI 31 KEENE NH SUNNY 42 24 49 NW16G23 29.82F BURLINGTON VT PTSUNNY 43 26 51 W7 29.79R MT. WASHINGTON BLWGSNOW 12 12 100 NW108G119 N/A VSB 0 WCI -18 $$ NYZ052-076-231400- EASTERN NEW YORK CITY SKY/WX TMP DP RH WIND PRES REMARKS ALBANY MOSUNNY 41 24 51 W13 29.92F NEW YORK CITY SUNNY 45 19 35 W15 30.04S $$ ANZALL-231400- MARINE OBSERVATIONS STATION/POSITION TIME TEMP WIND PRES VSBY WAVE AIR SEA DIR/SP/G HT/PER (UTC) (F) (DEG/KT/KT) (MB) (MI) (FT/S) BOSTON BUOY 1240 41 44 260/ 23/ 29 1009.2F BUZZARDS BAY 1200 280/ 30/ 32 1013.4S NANTUCKET SOUND 1240 47 N/A MASS BAY-STELLWA 1204 41 270/ 23/ 29 1007.3S 1 3/4 4/ 5 ISLE OF SHOALS 1200 39 260/ 29/ 31 1006.2R S OF BLOCK IS 1226 45 N/A 7/ 5 $$ ......................KEY......................... SKY/WX - SKY CONDITION/PRESENT WEATHER TMP - TEMPERATURE IN FAHRENHEIT DWPT - DEWPOINT IN FAHRENHEIT RH - RELATIVE HUMIDITY IN PERCENT WIND - DIRECTION AND SPEED IN MPH PRES - MEAN SEA LEVEL PRESSURE IN INCHES OF HG WCI - WIND CHILL INDEX VSB - VISIBILITY IN MILES HX - HEAT INDEX TC - TEMPERATURE IN CELSIUS VRB - VARIABLE WIND DIRECTION N/A - NOT AVAILABLE

USA.gov is the U.S. government's official web portal to all federal, state and local government web resources and services.